,,Stat5,,Stat1,,Stat2,,Stat3,,Stat4,,Wind1,,Wind1,
time,status,PA1M_AVG,status,PR1M_SUM,status,RH1M_AVG,status,SR1M_AVG,status,TA1M_AVG,status,W1dAve1m,status,W1sAve1m,
2000-10-17, 00:00:01,VALID,917.525,VALID,0,VALID,97.6007,VALID,0,VALID,19.8665,VALID,204,VALID,0,
2000-10-17, 00:01:00,VALID,917.524,VALID,0,VALID,97.5181,VALID,-0.0169808,VALID,19.8598,VALID,183,VALID,0.160262,
2000-10-17, 00:02:00,VALID,917.524,VALID,0,VALID,97.3337,VALID,0,VALID,19.8565,VALID,129,VALID,0.303539,
2000-10-17, 00:03:00,VALID,917.513,VALID,0,VALID,97.251,VALID,-0.0169808,VALID,19.8665,VALID,103,VALID,0.234776,
2000-10-17, 00:04:01,VALID,917.499,VALID,0,VALID,96.9967,VALID,0,VALID,19.8441,VALID,103,VALID,0.031467,
2000-10-17, 00:05:00,VALID,917.472,VALID,0,VALID,96.8683,VALID,-0.0169808,VALID,19.8242,VALID,103,VALID,0,
2000-10-17, 00:06:01,VALID,917.471,VALID,0,VALID,96.7221,VALID,0,VALID,19.8145,VALID,103,VALID,0,
2000-10-17, 00:07:00,VALID,917.457,VALID,0,VALID,96.6102,VALID,0,VALID,19.8116,VALID,93,VALID,0,
2000-10-17, 00:08:00,VALID,917.448,VALID,0,VALID,96.4715,VALID,-0.0169808,VALID,19.8088,VALID,95,VALID,0,
2000-10-17, 00:09:01,VALID,917.464,VALID,0,VALID,96.4741,VALID,0,VALID,19.8121,VALID,96,VALID,0,
2000-10-17, 00:10:00,VALID,917.45,VALID,0,VALID,96.455,VALID,0,VALID,19.8116,VALID,85,VALID,0,
2000-10-17, 00:11:01,VALID,917.46,VALID,0,VALID,96.4207,VALID,0,VALID,19.815,VALID,82,VALID,0.674632,
2000-10-17, 00:12:01,VALID,917.441,VALID,0,VALID,96.4245,VALID,0,VALID,19.8376,VALID,92,VALID,0.446615,
2000-10-17, 00:13:00,VALID,917.441,VALID,0,VALID,96.4156,VALID,0,VALID,19.8312,VALID,88,VALID,0.398214,
2000-10-17, 00:14:00,VALID,917.431,VALID,0,VALID,96.2096,VALID,0,VALID,19.8309,VALID,87,VALID,0.59421,
2000-10-17, 00:15:00,VALID,917.431,VALID,0,VALID,96.1854,VALID,-0.0169808,VALID,19.8247,VALID,98,VALID,0.850535,
2000-10-17, 00:16:00,VALID,917.429,VALID,0,VALID,96.352,VALID,0,VALID,19.8116,VALID,92,VALID,0.813345,
2000-10-17, 00:17:01,VALID,917.42,VALID,0,VALID,96.4067,VALID,-0.0169808,VALID,19.818,VALID,103,VALID,0.604248,
2000-10-17, 00:18:01,VALID,917.425,VALID,0,VALID,96.4334,VALID,0,VALID,19.815,VALID,115,VALID,0.467665,
2000-10-17, 00:19:00,VALID,917.435,VALID,0,VALID,96.441,VALID,0.0169808,VALID,19.7986,VALID,115,VALID,0.0915799,
2000-10-17, 00:20:00,VALID,917.449,VALID,0,VALID,96.4855,VALID,0,VALID,19.7922,VALID,115,VALID,0,
2000-10-17, 00:21:00,VALID,917.44,VALID,0,VALID,96.6839,VALID,0,VALID,19.7917,VALID,115,VALID,0,
2000-10-17, 00:22:00,VALID,917.422,VALID,0,VALID,96.675,VALID,0,VALID,19.7986,VALID,115,VALID,0,
2000-10-17, 00:23:00,VALID,917.421,VALID,0,VALID,96.5771,VALID,0,VALID,19.7691,VALID,116,VALID,0,
2000-10-17, 00:24:00,VALID,917.417,VALID,0,VALID,96.5097,VALID,0,VALID,19.7628,VALID,123,VALID,0.490921,
2000-10-17, 00:25:01,VALID,917.425,VALID,0,VALID,96.3724,VALID,0,VALID,19.73,VALID,123,VALID,0.33087,
2000-10-17, 00:26:01,VALID,917.426,VALID,0,VALID,96.4156,VALID,0,VALID,19.6947,VALID,123,VALID,0.292725,
2000-10-17, 00:27:01,VALID,917.44,VALID,0,VALID,96.4448,VALID,0,VALID,19.6692,VALID,123,VALID,0.0881076,
2000-10-17, 00:28:00,VALID,917.433,VALID,0,VALID,96.4843,VALID,0,VALID,19.6433,VALID,123,VALID,0.0542535,
2000-10-17, 00:29:00,VALID,917.423,VALID,0,VALID,96.661,VALID,0.0169808,VALID,19.647,VALID,123,VALID,0,
2000-10-17, 00:30:00,VALID,917.417,VALID,0,VALID,96.8174,VALID,-0.0169808,VALID,19.6438,VALID,123,VALID,0,
2000-10-17, 00:31:00,VALID,917.406,VALID,0,VALID,96.9281,VALID,0,VALID,19.6433,VALID,122,VALID,0.0375,
2000-10-17, 00:32:00,VALID,917.39,VALID,0,VALID,96.8429,VALID,0,VALID,19.6465,VALID,123,VALID,0.217142,
2000-10-17, 00:33:00,VALID,917.372,VALID,0,VALID,96.8454,VALID,0,VALID,19.6406,VALID,124,VALID,0,
2000-10-17, 00:34:01,VALID,917.347,VALID,0,VALID,96.9217,VALID,0,VALID,19.6366,VALID,130,VALID,0,
2000-10-17, 00:35:01,VALID,917.323,VALID,0,VALID,96.8899,VALID,0,VALID,19.65,VALID,131,VALID,0,
2000-10-17, 00:36:01,VALID,917.303,VALID,0,VALID,96.8886,VALID,0,VALID,19.6401,VALID,131,VALID,0,
2000-10-17, 00:37:00,VALID,917.286,VALID,0,VALID,96.956,VALID,0,VALID,19.65,VALID,131,VALID,0,
2000-10-17, 00:38:00,VALID,917.285,VALID,0,VALID,96.9344,VALID,0,VALID,19.6567,VALID,130,VALID,0,
2000-10-17, 00:39:00,VALID,917.284,VALID,0,VALID,96.6915,VALID,0.0169808,VALID,19.6272,VALID,130,VALID,0,
2000-10-17, 00:40:00,VALID,917.305,VALID,0,VALID,96.7106,VALID,0.0339617,VALID,19.6008,VALID,130,VALID,0,
2000-10-17, 00:41:00,VALID,917.328,VALID,0,VALID,96.9064,VALID,0.0339617,VALID,19.6207,VALID,130,VALID,0,
2000-10-17, 00:42:01,VALID,917.338,VALID,0,VALID,97.0667,VALID,0.0169808,VALID,19.6368,VALID,126,VALID,0,
2000-10-17, 00:43:00,VALID,917.359,VALID,0,VALID,96.9255,VALID,0,VALID,19.6175,VALID,124,VALID,0,
2000-10-17, 00:44:01,VALID,917.358,VALID,0,VALID,96.7424,VALID,0.0339617,VALID,19.6013,VALID,124,VALID,0,
2000-10-17, 00:45:01,VALID,917.342,VALID,0,VALID,96.717,VALID,0.0169808,VALID,19.5854,VALID,110,VALID,0.176432,
2000-10-17, 00:46:00,VALID,917.337,VALID,0,VALID,96.8607,VALID,0,VALID,19.5588,VALID,100,VALID,0.467665,
2000-10-17, 00:47:00,VALID,917.325,VALID,0,VALID,97.1124,VALID,0,VALID,19.5916,VALID,99,VALID,0.252367,
2000-10-17, 00:48:00,VALID,917.302,VALID,0,VALID,97.0133,VALID,0.0339617,VALID,19.5854,VALID,106,VALID,0,
2000-10-17, 00:49:00,VALID,917.292,VALID,0,VALID,96.8009,VALID,0,VALID,19.5367,VALID,80,VALID,0.103125,
2000-10-17, 00:50:00,VALID,917.277,VALID,0,VALID,97.1099,VALID,0,VALID,19.5466,VALID,316,VALID,0.740349,
2000-10-17, 00:51:01,VALID,917.243,VALID,0,VALID,97.4748,VALID,0,VALID,19.566,VALID,316,VALID,0.172931,
2000-10-17, 00:52:00,VALID,917.23,VALID,0,VALID,97.6808,VALID,0,VALID,19.5693,VALID,318,VALID,0.0506757,
2000-10-17, 00:53:01,VALID,917.227,VALID,0,VALID,97.8169,VALID,0,VALID,19.576,VALID,321,VALID,0.275146,
2000-10-17, 00:54:01,VALID,917.218,VALID,0,VALID,97.8919,VALID,0,VALID,19.5722,VALID,324,VALID,0.324436,
2000-10-17, 00:55:00,VALID,917.227,VALID,0,VALID,97.911,VALID,0.0169808,VALID,19.563,VALID,311,VALID,0.392361,
2000-10-17, 00:56:00,VALID,917.213,VALID,0,VALID,97.9695,VALID,0,VALID,19.5596,VALID,287,VALID,0.12358,
2000-10-17, 00:57:00,VALID,917.204,VALID,0,VALID,98.1196,VALID,0,VALID,19.5593,VALID,274,VALID,0,
2000-10-17, 00:58:00,VALID,917.196,VALID,0,VALID,98.1691,VALID,0,VALID,19.5693,VALID,280,VALID,0,
2000-10-17, 00:59:00,VALID,917.192,VALID,0,VALID,98.2327,VALID,-0.0169808,VALID,19.5625,VALID,279,VALID,0,
2000-10-17, 01:00:00,VALID,917.186,VALID,0,VALID,98.2658,VALID,-0.0169808,VALID,19.5697,VALID,279,VALID,0,
2000-10-17, 01:01:00,VALID,917.182,VALID,0,VALID,98.2645,VALID,0.0169808,VALID,19.5658,VALID,279,VALID,0,
2000-10-17, 01:02:01,VALID,917.182,VALID,0,VALID,98.2785,VALID,-0.0169808,VALID,19.5633,VALID,279,VALID,0,
2000-10-17, 01:03:01,VALID,917.179,VALID,0,VALID,98.3192,VALID,-0.0169808,VALID,19.5663,VALID,279,VALID,0,
2000-10-17, 01:04:00,VALID,917.174,VALID,0,VALID,98.2874,VALID,-0.0169808,VALID,19.5663,VALID,279,VALID,0,
2000-10-17, 01:05:00,VALID,917.188,VALID,0,VALID,98.1755,VALID,-0.0339617,VALID,19.5441,VALID,279,VALID,0,
2000-10-17, 01:06:00,VALID,917.183,VALID,0,VALID,98.0992,VALID,0.0169808,VALID,19.5245,VALID,279,VALID,0,
2000-10-17, 01:07:00,VALID,917.183,VALID,0,VALID,97.9797,VALID,0,VALID,19.4788,VALID,279,VALID,0,
2000-10-17, 01:08:00,VALID,917.194,VALID,0,VALID,97.8868,VALID,0,VALID,19.45,VALID,279,VALID,0,
2000-10-17, 01:09:00,VALID,917.215,VALID,0,VALID,97.8881,VALID,0,VALID,19.4502,VALID,279,VALID,0,
2000-10-17, 01:10:00,VALID,917.212,VALID,0,VALID,97.9797,VALID,-0.0169808,VALID,19.4597,VALID,279,VALID,0,
2000-10-17, 01:11:01,VALID,917.216,VALID,0,VALID,97.9441,VALID,-0.0169808,VALID,19.4465,VALID,279,VALID,0,
2000-10-17, 01:12:01,VALID,917.211,VALID,0,VALID,97.836,VALID,-0.0339617,VALID,19.4311,VALID,278,VALID,0,
2000-10-17, 01:13:00,VALID,917.175,VALID,0,VALID,97.6999,VALID,0,VALID,19.4055,VALID,145,VALID,0,
2000-10-17, 01:14:00,VALID,917.164,VALID,0,VALID,97.4621,VALID,-0.0339617,VALID,19.3506,VALID,119,VALID,0,
2000-10-17, 01:15:00,VALID,917.138,VALID,0,VALID,97.5829,VALID,-0.0169808,VALID,19.3337,VALID,119,VALID,0,
2000-10-17, 01:16:00,VALID,917.111,VALID,0,VALID,97.9339,VALID,0,VALID,19.3821,VALID,119,VALID,0,
2000-10-17, 01:17:00,VALID,917.1,VALID,0,VALID,98,VALID,0,VALID,19.3923,VALID,119,VALID,0,
2000-10-17, 01:18:00,VALID,917.087,VALID,0,VALID,97.7381,VALID,0,VALID,19.3732,VALID,119,VALID,0,
2000-10-17, 01:19:00,VALID,917.077,VALID,0,VALID,97.3057,VALID,-0.0169808,VALID,19.2981,VALID,119,VALID,0,
2000-10-17, 01:20:01,VALID,917.067,VALID,0,VALID,97.1188,VALID,-0.0169808,VALID,19.2435,VALID,119,VALID,0,
2000-10-17, 01:21:01,VALID,917.036,VALID,0,VALID,97.4049,VALID,-0.0169808,VALID,19.2405,VALID,123,VALID,0.547092,
2000-10-17, 01:22:00,VALID,917.004,VALID,0,VALID,97.7838,VALID,0.0169808,VALID,19.2591,VALID,125,VALID,0.660807,
2000-10-17, 01:23:00,VALID,916.965,VALID,0,VALID,98.1361,VALID,-0.0169808,VALID,19.3436,VALID,126,VALID,0.453125,
2000-10-17, 01:24:01,VALID,916.944,VALID,0,VALID,98.1335,VALID,0,VALID,19.3727,VALID,126,VALID,0.537829,
2000-10-17, 01:25:00,VALID,916.927,VALID,0,VALID,98.1119,VALID,-0.0169808,VALID,19.3662,VALID,126,VALID,0.1875,
2000-10-17, 01:26:00,VALID,916.917,VALID,0,VALID,98.2213,VALID,-0.0169808,VALID,19.4241,VALID,126,VALID,0,
2000-10-17, 01:27:00,VALID,916.886,VALID,0,VALID,98.1971,VALID,0,VALID,19.4475,VALID,126,VALID,0,
2000-10-17, 01:28:01,VALID,916.874,VALID,0,VALID,98.0433,VALID,0,VALID,19.4274,VALID,126,VALID,0,
2000-10-17, 01:29:01,VALID,916.871,VALID,0,VALID,97.9631,VALID,0,VALID,19.4209,VALID,126,VALID,0,
2000-10-17, 01:30:01,VALID,916.838,VALID,0,VALID,97.8919,VALID,0,VALID,19.4274,VALID,126,VALID,0,
2000-10-17, 01:31:01,VALID,916.815,VALID,0,VALID,97.8601,VALID,0,VALID,19.4177,VALID,126,VALID,0,
2000-10-17, 01:32:00,VALID,916.806,VALID,0,VALID,97.8996,VALID,0,VALID,19.4343,VALID,125,VALID,0,
2000-10-17, 01:33:00,VALID,916.795,VALID,0,VALID,97.9771,VALID,-0.0169808,VALID,19.4507,VALID,125,VALID,0,
2000-10-17, 01:34:01,VALID,916.786,VALID,0,VALID,98.0038,VALID,-0.0339617,VALID,19.4564,VALID,125,VALID,0,
2000-10-17, 01:35:00,VALID,916.791,VALID,0,VALID,97.9759,VALID,-0.0509425,VALID,19.4567,VALID,125,VALID,0,
2000-10-17, 01:36:01,VALID,916.776,VALID,0,VALID,97.9136,VALID,-0.0169808,VALID,19.4631,VALID,125,VALID,0,
2000-10-17, 01:37:01,VALID,916.755,VALID,0,VALID,97.8347,VALID,-0.0339617,VALID,19.4433,VALID,125,VALID,0,
2000-10-17, 01:38:01,VALID,916.741,VALID,0,VALID,97.8474,VALID,-0.0169808,VALID,19.4572,VALID,125,VALID,0,
2000-10-17, 01:39:01,VALID,916.716,VALID,0,VALID,97.8131,VALID,0,VALID,19.4572,VALID,125,VALID,0,
2000-10-17, 01:40:01,VALID,916.714,VALID,0,VALID,97.7088,VALID,-0.0169808,VALID,19.4338,VALID,125,VALID,0,
2000-10-17, 01:41:01,VALID,916.707,VALID,0,VALID,97.6503,VALID,-0.0169808,VALID,19.4405,VALID,125,VALID,0,
2000-10-17, 01:42:01,VALID,916.693,VALID,0,VALID,97.6173,VALID,-0.0169808,VALID,19.4306,VALID,139,VALID,0,
2000-10-17, 01:43:01,VALID,916.691,VALID,0,VALID,97.6185,VALID,-0.0679233,VALID,19.4313,VALID,144,VALID,0,
2000-10-17, 01:44:01,VALID,916.678,VALID,0,VALID,97.5906,VALID,-0.0339617,VALID,19.4246,VALID,144,VALID,0,
2000-10-17, 01:45:01,VALID,916.671,VALID,0,VALID,97.5944,VALID,-0.0339617,VALID,19.4147,VALID,144,VALID,0,
2000-10-17, 01:46:01,VALID,916.67,VALID,0,VALID,97.7012,VALID,-0.0509425,VALID,19.4216,VALID,144,VALID,0,
2000-10-17, 01:47:01,VALID,916.68,VALID,0,VALID,97.7457,VALID,-0.0169808,VALID,19.4221,VALID,144,VALID,0,
2000-10-17, 01:48:01,VALID,916.669,VALID,0,VALID,97.7521,VALID,0,VALID,19.4182,VALID,144,VALID,0,
2000-10-17, 01:49:01,VALID,916.647,VALID,0,VALID,97.8169,VALID,-0.0339617,VALID,19.4249,VALID,144,VALID,0,
2000-10-17, 01:50:01,VALID,916.648,VALID,0,VALID,97.7927,VALID,-0.0169808,VALID,19.4179,VALID,144,VALID,0,
2000-10-17, 01:51:01,VALID,916.614,VALID,0,VALID,97.8029,VALID,0,VALID,19.4117,VALID,144,VALID,0,
2000-10-17, 01:52:01,VALID,916.607,VALID,0,VALID,97.8589,VALID,-0.0169808,VALID,19.4318,VALID,144,VALID,0,
2000-10-17, 01:53:01,VALID,916.58,VALID,0,VALID,97.9606,VALID,-0.0509425,VALID,19.4547,VALID,144,VALID,0,
2000-10-17, 01:54:01,VALID,916.576,VALID,0,VALID,97.9072,VALID,-0.0509425,VALID,19.4544,VALID,144,VALID,0,
2000-10-17, 01:55:01,VALID,916.576,VALID,0,VALID,97.8398,VALID,-0.0169808,VALID,19.4343,VALID,144,VALID,0,
2000-10-17, 01:56:00,VALID,916.568,VALID,0,VALID,97.7126,VALID,-0.0169808,VALID,19.4157,VALID,204,VALID,0.117188,
2000-10-17, 01:57:00,VALID,916.566,VALID,0,VALID,97.6287,VALID,-0.0509425,VALID,19.3796,VALID,243,VALID,0.218099,
2000-10-17, 01:58:00,VALID,916.559,VALID,0,VALID,97.7495,VALID,0,VALID,19.3921,VALID,252,VALID,0.386719,
2000-10-17, 01:59:00,VALID,916.556,VALID,0,VALID,97.7673,VALID,-0.0339617,VALID,19.4057,VALID,252,VALID,0.399384,
2000-10-17, 02:00:00,VALID,916.541,VALID,0,VALID,97.8436,VALID,-0.0169808,VALID,19.3958,VALID,252,VALID,0.445724,
2000-10-17, 02:01:00,VALID,916.531,VALID,0,VALID,97.8067,VALID,-0.0339617,VALID,19.3863,VALID,245,VALID,0.511161,
2000-10-17, 02:02:00,VALID,916.519,VALID,0,VALID,97.9123,VALID,-0.0339617,VALID,19.3702,VALID,242,VALID,0.467142,
2000-10-17, 02:03:00,VALID,916.507,VALID,0,VALID,97.8792,VALID,-0.0169808,VALID,19.3573,VALID,240,VALID,0.197424,
2000-10-17, 02:04:00,VALID,916.504,VALID,0,VALID,97.8576,VALID,-0.0169808,VALID,19.3309,VALID,239,VALID,0.0990287,
2000-10-17, 02:05:00,VALID,916.515,VALID,0,VALID,97.9148,VALID,0,VALID,19.3376,VALID,239,VALID,0,
2000-10-17, 02:06:00,VALID,916.517,VALID,0,VALID,97.9657,VALID,0,VALID,19.3379,VALID,239,VALID,0,
2000-10-17, 02:07:00,VALID,916.526,VALID,0,VALID,98.0801,VALID,-0.0509425,VALID,19.354,VALID,239,VALID,0,
2000-10-17, 02:08:00,VALID,916.528,VALID,0,VALID,98.1348,VALID,-0.0509425,VALID,19.3702,VALID,239,VALID,0,
2000-10-17, 02:09:00,VALID,916.534,VALID,0,VALID,98.1119,VALID,-0.0509425,VALID,19.3704,VALID,239,VALID,0,
2000-10-17, 02:10:00,VALID,916.527,VALID,0,VALID,98.0178,VALID,0,VALID,19.3441,VALID,239,VALID,0,
2000-10-17, 02:11:00,VALID,916.519,VALID,0,VALID,97.7673,VALID,0,VALID,19.2897,VALID,209,VALID,0,
2000-10-17, 02:12:00,VALID,916.498,VALID,0,VALID,97.6274,VALID,-0.0169808,VALID,19.2375,VALID,205,VALID,0,
2000-10-17, 02:13:00,VALID,916.483,VALID,0,VALID,97.8271,VALID,-0.0339617,VALID,19.2343,VALID,205,VALID,0,
2000-10-17, 02:14:00,VALID,916.461,VALID,0,VALID,97.9682,VALID,0,VALID,19.2444,VALID,205,VALID,0,
2000-10-17, 02:15:00,VALID,916.455,VALID,0,VALID,98.3802,VALID,0,VALID,19.3051,VALID,205,VALID,0,
2000-10-17, 02:16:00,VALID,916.454,VALID,0,VALID,98.276,VALID,0.0339617,VALID,19.3053,VALID,205,VALID,0,
2000-10-17, 02:17:00,VALID,916.478,VALID,0,VALID,98.1272,VALID,0.0169808,VALID,19.2696,VALID,205,VALID,0,
2000-10-17, 02:18:00,VALID,916.482,VALID,0,VALID,98.1577,VALID,0.0509425,VALID,19.2693,VALID,147,VALID,0,
2000-10-17, 02:19:00,VALID,916.457,VALID,0,VALID,98.1361,VALID,0,VALID,19.2465,VALID,133,VALID,0,
2000-10-17, 02:20:00,VALID,916.459,VALID,0,VALID,98.2569,VALID,0,VALID,19.2889,VALID,93,VALID,0.264936,
2000-10-17, 02:21:00,VALID,916.435,VALID,0,VALID,98.3077,VALID,0.0509425,VALID,19.3058,VALID,112,VALID,0.256579,
2000-10-17, 02:22:00,VALID,916.419,VALID,0,VALID,98.2696,VALID,0.0339617,VALID,19.3051,VALID,112,VALID,0.16364,
2000-10-17, 02:23:00,VALID,916.397,VALID,0,VALID,98.1602,VALID,0,VALID,19.286,VALID,112,VALID,0.109375,
2000-10-17, 02:24:00,VALID,916.384,VALID,0,VALID,98.1412,VALID,0,VALID,19.2862,VALID,111,VALID,0.0496962,
2000-10-17, 02:25:00,VALID,916.364,VALID,0,VALID,98.1946,VALID,0.0339617,VALID,19.2889,VALID,106,VALID,0.00108507,
2000-10-17, 02:26:00,VALID,916.35,VALID,0,VALID,98.2365,VALID,0,VALID,19.3217,VALID,79,VALID,0,
2000-10-17, 02:27:00,VALID,916.34,VALID,0,VALID,98.2696,VALID,0.0169808,VALID,19.3245,VALID,86,VALID,0,
2000-10-17, 02:28:00,VALID,916.312,VALID,0,VALID,98.3344,VALID,0,VALID,19.3473,VALID,91,VALID,0,
2000-10-17, 02:29:00,VALID,916.3,VALID,0,VALID,98.1997,VALID,0,VALID,19.3185,VALID,100,VALID,0,
2000-10-17, 02:30:00,VALID,916.287,VALID,0,VALID,98.1183,VALID,0.0169808,VALID,19.2889,VALID,100,VALID,0,
2000-10-17, 02:31:00,VALID,916.287,VALID,0,VALID,98.103,VALID,-0.0339617,VALID,19.2705,VALID,100,VALID,0,
2000-10-17, 02:32:00,VALID,916.273,VALID,0,VALID,98.042,VALID,-0.0679233,VALID,19.265,VALID,100,VALID,0,
2000-10-17, 02:33:00,VALID,916.261,VALID,0,VALID,98.0445,VALID,-0.101885,VALID,19.2385,VALID,103,VALID,0,
2000-10-17, 02:34:00,VALID,916.259,VALID,0,VALID,98.0903,VALID,-0.101885,VALID,19.2521,VALID,131,VALID,0,
2000-10-17, 02:35:00,VALID,916.265,VALID,0,VALID,98.0051,VALID,-0.0849042,VALID,19.229,VALID,131,VALID,0,
2000-10-17, 02:36:00,VALID,916.248,VALID,0,VALID,97.967,VALID,-0.101885,VALID,19.2198,VALID,131,VALID,0,
2000-10-17, 02:37:00,VALID,916.237,VALID,0,VALID,97.9199,VALID,-0.118866,VALID,19.2101,VALID,131,VALID,0,
2000-10-17, 02:38:00,VALID,916.232,VALID,0,VALID,97.8665,VALID,-0.0679233,VALID,19.1999,VALID,131,VALID,0,
2000-10-17, 02:39:00,VALID,916.22,VALID,0,VALID,97.7851,VALID,-0.101885,VALID,19.1776,VALID,131,VALID,0,
2000-10-17, 02:40:00,VALID,916.203,VALID,0,VALID,97.7381,VALID,-0.101885,VALID,19.1582,VALID,131,VALID,0,
2000-10-17, 02:41:00,VALID,916.19,VALID,0,VALID,97.8195,VALID,-0.101885,VALID,19.1487,VALID,131,VALID,0,
2000-10-17, 02:42:00,VALID,916.183,VALID,0,VALID,98.0661,VALID,-0.0849042,VALID,19.1843,VALID,131,VALID,0,
2000-10-17, 02:43:00,VALID,916.168,VALID,0,VALID,98.1577,VALID,-0.0849042,VALID,19.2039,VALID,131,VALID,0,
2000-10-17, 02:44:00,VALID,916.148,VALID,0,VALID,97.9975,VALID,-0.101885,VALID,19.1455,VALID,131,VALID,0,
2000-10-17, 02:45:00,VALID,916.144,VALID,0,VALID,97.4443,VALID,-0.101885,VALID,19.0615,VALID,125,VALID,0,
2000-10-17, 02:46:00,VALID,916.132,VALID,0,VALID,97.1811,VALID,-0.0339617,VALID,18.9569,VALID,106,VALID,0,
2000-10-17, 02:47:00,VALID,916.143,VALID,0,VALID,97.939,VALID,0.0169808,VALID,19.0183,VALID,98,VALID,0,
2000-10-17, 02:48:00,VALID,916.129,VALID,0,VALID,98.0763,VALID,0.0169808,VALID,19.0047,VALID,96,VALID,0,
2000-10-17, 02:49:00,VALID,916.118,VALID,0,VALID,98.1488,VALID,0.0169808,VALID,18.9955,VALID,102,VALID,0.391681,
2000-10-17, 02:50:00,VALID,916.107,VALID,0,VALID,98.2264,VALID,0.0169808,VALID,18.9761,VALID,101,VALID,0.716309,
2000-10-17, 02:51:00,VALID,916.118,VALID,0,VALID,98.0534,VALID,0,VALID,18.9117,VALID,100,VALID,0.61263,
2000-10-17, 02:52:00,VALID,916.121,VALID,0,VALID,97.9263,VALID,0,VALID,18.831,VALID,99,VALID,0.616536,
2000-10-17, 02:53:00,VALID,916.131,VALID,0,VALID,98.1552,VALID,0,VALID,18.8243,VALID,98,VALID,0.506866,
2000-10-17, 02:54:00,VALID,916.134,VALID,0,VALID,98.2607,VALID,0,VALID,18.8215,VALID,98,VALID,0.397204,
2000-10-17, 02:55:00,VALID,916.133,VALID,0,VALID,98.3853,VALID,0,VALID,18.824,VALID,98,VALID,0.246875,
2000-10-17, 02:56:00,VALID,916.149,VALID,0,VALID,98.5862,VALID,-0.0169808,VALID,18.8697,VALID,98,VALID,0.342601,
2000-10-17, 02:57:00,VALID,916.147,VALID,0,VALID,98.6803,VALID,0.0169808,VALID,18.8981,VALID,98,VALID,0.0314611,
2000-10-17, 02:58:00,VALID,916.153,VALID,0,VALID,98.7757,VALID,-0.0169808,VALID,18.9438,VALID,98,VALID,0,
2000-10-17, 02:59:00,VALID,916.16,VALID,0,VALID,98.8062,VALID,0,VALID,18.9699,VALID,98,VALID,0,
2000-10-17, 03:00:00,VALID,916.15,VALID,0,VALID,98.7744,VALID,0,VALID,18.9599,VALID,98,VALID,0,
2000-10-17, 03:01:00,VALID,916.146,VALID,0,VALID,98.777,VALID,0.0169808,VALID,18.9403,VALID,98,VALID,0,
2000-10-17, 03:02:00,VALID,916.14,VALID,0,VALID,98.7643,VALID,0,VALID,18.9343,VALID,98,VALID,0,
2000-10-17, 03:03:00,VALID,916.142,VALID,0,VALID,98.6867,VALID,0,VALID,18.902,VALID,98,VALID,0,
2000-10-17, 03:04:00,VALID,916.136,VALID,0,VALID,98.6536,VALID,0,VALID,18.8762,VALID,98,VALID,0,
2000-10-17, 03:05:00,VALID,916.129,VALID,0,VALID,98.6562,VALID,0,VALID,18.8663,VALID,98,VALID,0,
2000-10-17, 03:06:00,VALID,916.107,VALID,0,VALID,98.6384,VALID,0,VALID,18.8797,VALID,98,VALID,0,
2000-10-17, 03:07:00,VALID,916.116,VALID,0,VALID,98.6295,VALID,-0.0339617,VALID,18.8762,VALID,98,VALID,0,
2000-10-17, 03:08:00,VALID,916.108,VALID,0,VALID,98.6422,VALID,0,VALID,18.8792,VALID,98,VALID,0,
2000-10-17, 03:09:00,VALID,916.113,VALID,0,VALID,98.6396,VALID,0,VALID,18.8829,VALID,98,VALID,0,
2000-10-17, 03:10:00,VALID,916.105,VALID,0,VALID,98.7197,VALID,0,VALID,18.9055,VALID,98,VALID,0,
2000-10-17, 03:11:00,VALID,916.113,VALID,0,VALID,98.8049,VALID,0,VALID,18.9609,VALID,112,VALID,0.0184659,
2000-10-17, 03:12:00,VALID,916.11,VALID,0,VALID,98.6956,VALID,0.0169808,VALID,18.9477,VALID,98,VALID,0.318668,
2000-10-17, 03:13:00,VALID,916.13,VALID,0,VALID,98.721,VALID,0,VALID,18.9443,VALID,76,VALID,0.340402,
2000-10-17, 03:14:00,VALID,916.137,VALID,0,VALID,98.7782,VALID,0,VALID,18.986,VALID,73,VALID,0.265395,
2000-10-17, 03:15:00,VALID,916.131,VALID,0,VALID,98.9817,VALID,0.0169808,VALID,19.1319,VALID,82,VALID,0.763725,
2000-10-17, 03:16:00,VALID,916.113,VALID,0,VALID,99.1076,VALID,-0.0849042,VALID,19.2322,VALID,91,VALID,0.834882,
2000-10-17, 03:17:00,VALID,916.111,VALID,0,VALID,99.0631,VALID,-0.0849042,VALID,19.2253,VALID,96,VALID,0.894043,
2000-10-17, 03:18:00,VALID,916.097,VALID,0,VALID,99.0911,VALID,-0.0679233,VALID,19.2738,VALID,98,VALID,1.29883,
2000-10-17, 03:19:00,VALID,916.098,VALID,0,VALID,99.0898,VALID,-0.101885,VALID,19.3264,VALID,100,VALID,1.11806,
2000-10-17, 03:20:00,VALID,916.107,VALID,0,VALID,99.0809,VALID,-0.101885,VALID,19.3553,VALID,92,VALID,1.23627,
2000-10-17, 03:21:00,VALID,916.107,VALID,0,VALID,99.0491,VALID,-0.118866,VALID,19.3714,VALID,86,VALID,0.993832,
2000-10-17, 03:22:00,VALID,916.108,VALID,0,VALID,99.0478,VALID,-0.0849042,VALID,19.4137,VALID,94,VALID,1.00469,
2000-10-17, 03:23:00,VALID,916.104,VALID,0,VALID,99.0249,VALID,-0.101885,VALID,19.4258,VALID,101,VALID,0.922335,
2000-10-17, 03:24:00,VALID,916.101,VALID,0,VALID,99.016,VALID,-0.101885,VALID,19.4584,VALID,96,VALID,0.908361,
2000-10-17, 03:25:00,VALID,916.093,VALID,0,VALID,98.9728,VALID,-0.0849042,VALID,19.4651,VALID,84,VALID,0.642525,
2000-10-17, 03:26:00,VALID,916.104,VALID,0,VALID,98.9308,VALID,-0.0509425,VALID,19.4487,VALID,89,VALID,0.717773,
2000-10-17, 03:27:00,VALID,916.115,VALID,0,VALID,98.9143,VALID,-0.101885,VALID,19.4547,VALID,87,VALID,0.724392,
2000-10-17, 03:28:00,VALID,916.126,VALID,0,VALID,98.9118,VALID,-0.0679233,VALID,19.4711,VALID,91,VALID,0.47895,
2000-10-17, 03:29:00,VALID,916.133,VALID,0,VALID,98.8838,VALID,-0.0679233,VALID,19.4778,VALID,89,VALID,0.803741,
2000-10-17, 03:30:00,VALID,916.14,VALID,0,VALID,98.8507,VALID,-0.101885,VALID,19.4649,VALID,88,VALID,0.889186,
2000-10-17, 03:31:00,VALID,916.141,VALID,0,VALID,98.8049,VALID,-0.0339617,VALID,19.4512,VALID,85,VALID,0.772321,
2000-10-17, 03:32:00,VALID,916.155,VALID,0,VALID,98.7388,VALID,0.0509425,VALID,19.4341,VALID,85,VALID,0.566176,
2000-10-17, 03:33:00,VALID,916.157,VALID,0,VALID,98.7973,VALID,0,VALID,19.4629,VALID,79,VALID,0.71516,
2000-10-17, 03:34:00,VALID,916.158,VALID,0,VALID,98.7897,VALID,0.0339617,VALID,19.4917,VALID,74,VALID,0.568623,
2000-10-17, 03:35:00,VALID,916.165,VALID,0,VALID,98.7134,VALID,0.0509425,VALID,19.4761,VALID,87,VALID,0.5896,
2000-10-17, 03:36:00,VALID,916.18,VALID,0,VALID,98.6435,VALID,0.0339617,VALID,19.4661,VALID,84,VALID,0.62717,
2000-10-17, 03:37:00,VALID,916.177,VALID,0,VALID,98.6193,VALID,0.0509425,VALID,19.483,VALID,50,VALID,0.674696,
2000-10-17, 03:38:00,VALID,916.194,VALID,0,VALID,98.646,VALID,0,VALID,19.4818,VALID,63,VALID,0.151278,
2000-10-17, 03:39:00,VALID,916.202,VALID,0,VALID,98.5799,VALID,0,VALID,19.453,VALID,63,VALID,0.464433,
2000-10-17, 03:40:00,VALID,916.198,VALID,0,VALID,98.6078,VALID,0.0169808,VALID,19.4597,VALID,59,VALID,0.21875,
2000-10-17, 03:41:00,VALID,916.212,VALID,0,VALID,98.571,VALID,0,VALID,19.4502,VALID,63,VALID,0.439108,
2000-10-17, 03:42:00,VALID,916.227,VALID,0,VALID,98.6066,VALID,0,VALID,19.4467,VALID,68,VALID,0.338049,
2000-10-17, 03:43:00,VALID,916.248,VALID,0,VALID,98.6028,VALID,0,VALID,19.45,VALID,56,VALID,0.00612331,